     2.10           OBSERVATION DATA    G (GPS)             RINEX VERSION / TYPE
teqc 2002Apr3 Duncan Agnew 20050511 23:58:26UTC             PGM / RUN BY / DATE
OSX 5.3|G3|cc|OSX 5.3+|G3+                                  COMMENT
BIT 2 OF LLI FLAGS DATA COLLECTED UNDER A/S CONDITION       COMMENT
HOLT 1924 1967                                              MARKER NAME
6893                                                        MARKER NUMBER
Alex Espinoza Nolte Engineering                             OBSERVER / AGENCY
220136893 TRIMBLE 4800 NP 1.20 / SP 1.43                    REC # / TYPE / VERS
N/A TRM4800                                                 ANT # / TYPE
 -2302040.0000 -4848898.0000  3433584.0000                  APPROX POSITION XYZ
        2.0000        0.0000        0.0000                  ANTENNA: DELTA H/E/N
     1     1                                                WAVELENGTH FACT L1/2
     7    C1    L1    L2    P1    P2    S1    S2            # / TYPES OF OBSERV
SNR is mapped to RINEX snr flag value [1-9]                 COMMENT
L1: 3 -> 1; 8 -> 5; 40 -> 9                                 COMMENT
L2: 1 -> 1; 5 -> 5; 60 -> 9                                 COMMENT
  2004     6    29    22    38   30.0000000     GPS         TIME OF FIRST OBS
                                                            END OF HEADER
 04  6 29 22 38 30.0000000  0  4G11G16G20G25
  23080774.0834     112240.36359     77203.78557                  23080773.0794
        44.2504         32.7504
  22388973.8414    -160738.61359   -110751.23057                  22388972.1234
        48.0004         34.5004
  21017082.5724    -128968.41059    -87614.26558                  21017079.8214
        52.0004         43.7504
  22082261.2184     117002.92659     81476.99657                  22082258.8804
        47.2504         38.5004
 04  6 29 22 38 40.0000000  0  4G11G16G20G25
  23084396.2584     131272.12149     92033.69347                  23084394.7464
        44.0004         32.0004
  22383579.9204    -189083.74249   -132838.32347                  22383577.5974
        48.5004         35.7504
  21012800.9124    -151466.84449   -105145.50948                  21012798.0194
        51.7504         42.5004
  22086038.4034     136852.64849     96944.30847                  22086035.9304
        48.2504         38.2504
 04  6 29 22 38 50.0000000  0  4G11G16G20G25
  23088004.2904     150236.29349    106810.94447                  23088003.0534
        46.7504         32.5004
  22378175.6584    -217483.60549   -154968.08047                  22378173.7274
        48.0004         36.0004
  21008510.7264    -174012.95349   -122713.90848                  21008507.8044
        52.5004         43.7504
  22089802.0454     156631.75049    112356.58148                  22089800.0794
        48.0004         39.5004
 04  6 29 22 39  0.0000000  0  4G11G16G20G25
  23091603.5414     169147.15649    121546.65747                  23091601.8974
        47.0004         32.5004
  22372763.7664    -245923.67249   -177129.16047                  22372761.9564
        48.2504         36.2504
  21004214.0474    -196592.26649   -140308.17848                  21004210.9394
        52.0004         44.0004
  22093555.6014     176354.57449    127725.01147                  22093552.9584
        49.0004         39.2504
 04  6 29 22 39 10.0000000  0  4G11G16G20G25
  23095193.4984     188013.00849    136247.30647                  23095191.8724
        44.5004         32.2504
  22367345.9344    -274395.45749   -199314.93147                  22367343.2994
        47.2504         35.7504
  20999912.8874    -219196.18749   -157921.62048                  20999909.6404
        52.2504         43.5004
  22097299.4894     196029.45749    143056.08547                  22097297.2434
        48.2504         39.0004
 04  6 29 22 39 20.0000000  0  4G11G16G20G25
  23098774.9184     206838.53949    150916.52747                  23098774.0944
        44.5004         31.5004
  22361922.5764    -302893.94949   -221521.54747                  22361920.8704
        47.5004         35.7504
  20995607.3184    -241819.82449   -175550.40548                  20995604.3374
        52.0004         43.0004
  22101035.4364     215661.12149    158353.48947                  22101032.9774
        47.0004         39.2504
 04  6 29 22 39 30.0000000  0  4G11G16G20G25
  23102350.7584     225627.51249    165557.25847                  23102349.8344
        45.5004         31.0004
  22356495.6594    -331415.25849   -243745.93647                  22356493.1914
        47.7504         35.5004
  20991299.3504    -264459.30149   -193191.57048                  20991296.3274
        51.7504         42.5004
  22104763.6034     235253.34449    173620.13947                  22104760.9664
        48.5004         38.7504
 04  6 29 22 39 40.0000000  0  4G11G16G20G25
  23105919.3694     244379.66049    180169.30047                  23105918.2324
        46.5004         31.2504
  22351063.4844    -359959.41849   -265988.11247                  22351061.5894
        47.2504         36.7504
  20986988.1334    -287114.69949   -210845.12248                  20986985.4674
        52.0004         43.0004
  22108484.3574     254805.82449    188855.82247                  22108481.4044
        49.0004         39.0004
 04  6 29 22 39 50.0000000  0  4G11G16G20G25
  23109481.6424     263099.18049    194755.90947                  23109480.4274
        46.2504         31.2504
  22345628.4244    -388522.05549   -288244.68947                  22345626.2974
        47.2504         36.0004
  20982675.0984    -309781.68049   -228507.69448                  20982672.3134
        52.0004         43.2504
  22112198.3784     274322.84049    204063.89747                  22112195.5744
        49.0004         39.0004
 04  6 29 22 40  0.0000000  0  4G11G16G20G25
  23113037.5824     281785.60249    209316.72247                  23113036.7794
        45.7504         31.2504
  22340189.5774    -417103.42249   -310515.89047                  22340187.2354
        46.2504         36.5004
  20978359.1324    -332460.50849   -246179.51648                  20978356.5934
        52.2504         43.7504
  22115905.2884     293803.90649    219243.94947                  22115902.7584
        48.7504         39.2504
 04  6 29 22 40 10.0000000  0  4G11G16G20G25
  23116586.3254     300436.12949    223849.55847                  23116585.0694
        46.0004         31.7504
  22334746.6014    -445706.05549   -332803.62747                  22334744.0414
        46.2504         36.0004
  20974040.9194    -355153.74649   -263862.56448                  20974037.6584
        52.0004         43.5004
  22119605.0594     313246.40249    234393.93047                  22119602.4084
        48.7504         38.5004
 04  6 29 22 40 20.0000000  0  4G11G16G20G25
  23120129.4814     319053.15649    238356.33347                  23120127.7684
        46.0004         31.2504
  22329300.0744    -474327.32049   -355105.88447                  22329298.2044
        48.7504         36.2504
  20969720.2704    -377858.71949   -281554.73648                  20969716.9244
        52.2504         43.2504
  22123298.2144     332652.78949    249515.78247                  22123295.8444
        48.0004         38.5004
 04  6 29 22 40 30.0000000  0  4G11G16G20G25
  23123665.3764     337634.67649    252835.40747                  23123664.2824
        46.7504         31.0004
  22323849.8234    -502969.14549   -377424.18247                  22323847.5554
        47.0004         36.0004
  20965397.0824    -400577.40249   -299257.60448                  20965393.8574
        51.7504         43.0004
  22126983.5704     352020.87149    264607.79447                  22126980.9274
        47.7504         39.2504
 04  6 29 22 40 40.0000000  0  4G11G16G20G25
  23127195.0574     356183.19549    267288.76747                  23127194.0984
        46.5004         29.7504
  22318395.9794    -531628.67649   -399756.26847                  22318393.6844
        47.5004         35.5004
  20961071.6384    -423307.05949   -316969.02248                  20961068.7554
        52.0004         42.7504
  22130662.3384     371353.27349    279671.99447                  22130659.9124
        47.0004         38.2504
 04  6 29 22 40 50.0000000  0  4G11G16G20G25
  23130718.6094     374701.09849    281718.26647                  23130717.5264
        46.5004         31.0004
  22312939.1104    -560303.39149   -422100.18747                  22312937.0644
        47.0004         36.5004
  20956744.7264    -446045.08249   -334686.96648                  20956741.5844
        53.0004         43.0004
  22134335.1774     390652.34849    294710.22147                  22134332.4944
        48.7504         38.5004
 04  6 29 22 41  0.0000000  0  4G11G16G20G25
  23134236.3124     393185.79349    296121.90847                  23134235.2364
        46.0004         31.2504
  22307479.3524    -588995.72349   -444457.83247                  22307476.5094
        45.0004         36.0004
  20952415.8364    -468794.02349   -352413.41348                  20952412.5364
        52.2504         43.0004
  22138000.5784     409915.45349    309720.43747                  22137997.7784
        49.5004         38.7504
 04  6 29 22 41 10.0000000  0  4G11G16G20G25
  23137747.4434     411635.59449    310498.36047                  23137746.2084
        46.2504         30.7504
  22302015.6494    -617707.08249   -466830.29847                  22302013.3394
        48.0004         36.5004
  20948084.3714    -491555.17249   -370149.37348                  20948081.1214
        51.5004         43.5004
  22141659.0944     429141.13749    324701.47847                  22141656.5004
        48.0004         39.0004
 04  6 29 22 41 20.0000000  0  4G11G16G20G25
  23141252.1084     430051.88749    324848.68547                  23141250.7774
        46.5004         30.0004
  22296548.7914    -646435.82849   -489216.32947                  22296546.5534
        47.2504         36.7504
  20943750.9304    -514326.99249   -387893.64548                  20943748.3294
        52.5004         43.5004
  22145311.1294     448330.81349    339654.46747                  22145308.0504
        47.5004         38.5004
 04  6 29 22 41 30.0000000  0  4G11G16G20G25
  23144750.6194     448437.66049    339175.25047                  23144749.6814
        45.5004         30.7504
  22291078.9964    -675178.87549   -511613.48947                  22291077.1104
        46.0004         36.0004
  20939416.4634    -537106.45349   -405643.85748                  20939413.4364
        52.5004         43.5004
  22148956.1554     467487.39849    354581.68547                  22148953.8884
        48.5004         39.0004
 04  6 29 22 41 40.0000000  0  4G11G16G20G25
  23148243.1194     466791.19549    353476.67347                  23148241.7764
        45.7504         31.0004
  22285606.5334    -703937.59849   -534022.87447                  22285604.0714
        47.2504         36.7504
  20935080.1654    -559895.00049   -423401.17048                  20935077.0644
        51.7504         43.5004
  22152594.8744     486609.19149    369481.78347                  22152592.5664
        48.5004         38.0004
 04  6 29 22 41 50.0000000  0  4G11G16G20G25
  23151729.1934     485114.67649    367754.67347                  23151728.9664
        45.7504         29.0004
  22280131.3404    -732709.66449   -556442.65847                  22280128.9074
        48.7504         35.7504
  20930742.1464    -582690.20349   -441163.67148                  20930739.3094
        51.7504         43.0004
  22156227.4174     505698.44549    384356.50647                  22156225.1464
        49.2504         37.5004
 04  6 29 22 42  0.0000000  0  4G11G16G20G25
  23155210.3084     503403.67649    382005.81947                  23155209.5374
        46.0004         30.2504
  22274652.8174    -761499.28949   -578876.10947                  22274650.5914
        49.2504         36.5004
  20926402.2734    -605496.35949   -458934.68948                  20926399.3204
        51.7504         43.5004
  22159853.1744     524750.74649    399202.45047                  22159850.3964
        48.7504         38.5004
 04  6 29 22 42 10.0000000  0  4G11G16G20G25
  23158685.5434     521664.89849    396235.32447                  23158684.4934
        45.5004         30.5004
  22269172.2594    -790299.62949   -601317.91947                  22269170.4884
        49.0004         36.2504
  20922061.6964    -628306.60549   -476708.90248                  20922058.5794
        52.2504         43.0004
  22163473.0584     543772.81349    414024.84047                  22163470.1334
        48.5004         39.0004
 04  6 29 22 42 20.0000000  0  4G11G16G20G25
  23162154.0364     539893.84849    410439.68147                  23162153.3494
        46.0004         30.5004
  22263688.7514    -819114.88749   -623771.35147                  22263686.7644
        48.5004         36.7504
  20917719.5124    -651125.20349   -494489.63148                  20917715.8824
        52.5004         44.2504
  22167086.2704     562760.19949    428820.19047                  22167083.7274
        48.5004         38.7504
 04  6 29 22 42 30.0000000  0  4G11G16G20G25
  23165617.0394     558091.74649    424619.84347                  23165616.1284
        46.0004         30.5004
  22258202.9954    -847943.66849   -646235.31947                  22258200.7894
        49.5004         36.7504
  20913375.7904    -673950.72349   -512275.74448                  20913372.6154
        52.2504         43.5004
  22170692.6914     581714.15249    443589.50947                  22170690.6234
        47.7504         39.0004
 04  6 29 22 42 40.0000000  0  4G11G16G20G25
  23169074.0504     576259.10949    438776.20447                  23169072.9984
        45.2504         30.5004
  22252714.4774    -876785.16849   -668709.19747                  22252712.8624
        49.5004         37.0004
  20909031.0844    -696782.46149   -530066.70248                  20909028.3364
        51.7504         43.2504
  22174293.3994     600635.24249    458333.21747                  22174290.9224
        48.2504         38.5004
 04  6 29 22 42 50.0000000  0  4G11G16G20G25
  23172525.2644     594396.30149    452909.05847                  23172524.5224
        45.0004         29.5004
  22247224.3224    -905638.82449   -691192.55847                  22247222.0444
        49.5004         37.0004
  20904685.2324    -719619.82049   -547862.05148                  20904682.4294
        51.7504         43.0004
  22177887.8894     619523.84049    473051.58747                  22177885.2274
        47.7504         38.7504
 04  6 29 22 43  0.0000000  0  4G11G16G20G25
  23175970.9384     612503.12549    467018.22147                  23175970.4914
        45.0004         29.0004
  22241731.1264    -934504.68049   -713685.41147                  22241728.8144
        49.0004         36.5004
  20900338.6254    -742462.87149   -565661.82648                  20900335.3874
        52.0004         43.0004
  22181475.8074     638379.89149    487744.61647                  22181473.3074
        47.0004         38.0004
 04  6 29 22 43 10.0000000  0  4G11G16G20G25
  23179411.0634     630580.24249    481104.27547                  23179410.3124
        44.2504         30.5004
  22236235.6494    -963381.78949   -736187.04847                  22236233.5974
        49.5004         37.0004
  20895990.3364    -765310.62949   -583465.26648                  20895987.6554
        52.5004         43.7504
  22185057.7684     657204.10949    502412.82647                  22185055.3944
        48.0004         38.7504
 04  6 29 22 43 20.0000000  0  4G11G16G20G25
  23182845.7664     648630.76249    495169.55447                  23182845.3314
        44.7504         29.7504
  22230739.0714    -992266.92649   -758694.92047                  22230736.5994
        48.7504         36.5004
  20891642.5704    -788160.00849   -601269.98348                  20891639.5724
        52.2504         43.5004
  22188634.8504     675999.45349    517058.54347                  22188632.3474
        48.5004         38.5004
 04  6 29 22 43 30.0000000  0  4G11G16G20G25
  23186275.0404     666652.87149    509212.75247                  23186274.9734
        41.0004         30.2504
  22225240.4484   -1021161.71949   -781210.31947                  22225238.3694
        49.5004         37.0004
  20887293.8144    -811012.62549   -619077.20148                  20887290.6864
        51.5004         44.0004
  22192205.6664     694764.14149    531680.38247                  22192202.7944
        46.2504         39.0004
 04  6 29 22 43 40.0000000  0  4G11G16G20G25
  23189699.7844     684645.78949    523233.16747                  23189698.3494
        42.7504         30.7504
  22219740.4094   -1050066.75449   -803733.70147                  22219737.9894
        49.7504         36.7504
  20882944.1504    -833869.10249   -636887.44148                  20882941.5374
        52.5004         43.5004
  22195770.2434     713497.33249    546277.67547                  22195767.9624
        47.2504         38.7504
 04  6 29 22 43 50.0000000  0  4G11G16G20G25
  23193119.1874     702612.07849    537232.85847                  23193117.8314
        44.2504         31.2504
  22214238.1644   -1078979.14849   -826262.83347                  22214236.0614
        50.0004         36.7504
  20878594.7604    -856726.56249   -654698.44748                  20878591.5264
        52.5004         43.5004
  22199329.6514     732201.77349    560852.54847                  22199327.2404
        47.2504         38.7504
 04  6 29 22 44  0.0000000  0  4G11G16G20G25
  23196532.3644     720550.05949    551210.48447                  23196531.1984
        45.5004         30.7504
  22208734.6834   -1107900.34449   -848798.81047                  22208732.4574
        48.5004         36.0004
  20874244.3724    -879586.49649   -672511.36448                  20874241.3544
        52.5004         43.2504
  22202883.0964     750875.87949    575403.80647                  22202881.0034
        46.7504         38.5004
 04  6 29 22 44 10.0000000  0  4G11G16G20G25
  23199939.8124     738457.78949    565164.52047                  23199938.3974
        44.2504         29.5004
  22203229.5844   -1136832.09049   -871343.02147                  22203226.8554
        49.0004         35.5004
  20869893.6714    -902450.65249   -690327.60948                  20869890.6204
        51.5004         43.0004
  22206430.9144     769517.64549    589929.84147                  22206428.1154
        48.7504         37.7504
 04  6 29 22 44 20.0000000  0  4G11G16G20G25
  23203341.7134     756337.08249    579096.42847                  23203340.7164
        45.0004         30.0004
  22197722.3314   -1165772.44549   -893893.92147                  22197719.3694
        49.0004         36.5004
  20865542.0464    -925317.10549   -708145.60348                  20865539.6104
        51.0004         43.2504
  22209972.3334     788128.96949    604432.17647                  22209969.6564
        48.0004         38.5004
 04  6 29 22 44 30.0000000  0  4G11G16G20G25
  23206738.3584     774185.56649    593004.31747                  23206737.4114
        44.2504         30.0004
  22192212.8014   -1194723.53949   -916453.19047                  22192210.2684
        49.2504         35.7504
  20861190.0564    -948188.06649   -725967.13048                  20861186.9594
        51.7504         43.7504
  22213507.5854     806707.53149    618908.97247                  22213505.1904
        47.2504         38.0004
 04  6 29 22 44 40.0000000  0  4G11G16G20G25
  23210129.2804     792003.16049    606888.09647                  23210127.8624
        43.0004         29.5004
  22186702.0624   -1223685.22349   -939020.72847                  22186699.0964
        49.0004         37.0004
  20856837.2474    -971063.32049   -743792.00148                  20856834.2154
        52.2504         43.7504
  22217036.7014     825253.23049    633360.16347                  22217034.1904
        48.0004         38.7504
 04  6 29 22 44 50.0000000  0  4G11G16G20G25
  23213514.7914     809794.42249    620751.40147                  23213513.7904
        44.5004         28.7504
  22181189.0814   -1252652.72749   -961592.80247                  22181186.8014
        48.7504         36.7504
  20852484.1314    -993938.09449   -761616.49448                  20852480.8994
        51.7504         43.5004
  22220560.6674     843770.65649    647789.31247                  22220558.0874
        46.7504         38.5004
 04  6 29 22 45  0.0000000  0  4G11G16G20G25
  23216894.6804     827557.38349    634592.66847                  23216893.8704
        44.0004         29.2504
  22175675.7554   -1281627.82049   -984170.76347                  22175673.0644
        48.7504         36.2504
  20848131.0264   -1016814.33249   -779442.11948                  20848128.0974
        52.5004         43.5004
  22224078.4394     862257.80949    662194.88647                  22224075.7414
        46.7504         38.2504
 04  6 29 22 45 10.0000000  0  4G11G16G20G25
  23220268.7994     845286.95349    648407.88847                  23220267.8074
        44.2504         29.7504
  22170159.5954   -1310615.43449  -1006758.49647                  22170156.8524
        49.2504         36.0004
  20843776.4624   -1039696.90649   -797272.70048                  20843773.3604
        51.7504         43.5004
  22227589.8354     880709.66849    676572.94547                  22227587.6684
        48.0004         37.7504
 04  6 29 22 45 20.0000000  0  4G11G16G20G25
  23223636.4594     862984.28149    662197.98847                  23223635.9154
        45.7504         29.5004
  22164640.7254   -1339614.23049  -1029354.93847                  22164638.9404
        49.5004         35.0004
  20839421.0294   -1062584.43749   -815107.12948                  20839417.9164
        52.0004         43.0004
  22231094.5794     899127.35249    690924.39047                  22231092.2074
        47.0004         36.7504
 04  6 29 22 45 30.0000000  0  4G11G16G20G25
  23226999.0144     880653.05949    675965.84047                  23226997.4804
        44.7504         30.5004
  22159121.5584   -1368620.25049  -1051957.01747                  22159119.2274
        49.2504         36.2504
  20835065.6784   -1085472.97349   -832942.35148                  20835062.4654
        52.5004         44.0004
  22234593.7714     917514.65249    705252.14947                  22234591.7474
        47.5004         38.2504
 04  6 29 22 45 40.0000000  0  4G11G16G20G25
  23230356.0134     898294.23049    689712.16747                  23230354.9264
        43.7504         31.0004
  22153600.4834   -1397632.31649  -1074563.80247                  22153598.0674
        49.5004         36.7504
  20830710.2514   -1108361.39849   -850777.48048                  20830706.8204
        51.0004         43.5004
  22238086.7824     935872.54749    719556.98447                  22238084.5584
        48.0004         38.2504
 04  6 29 22 45 50.0000000  0  4G11G16G20G25
  23233707.3154     915906.01649    703435.61747                  23233705.5584
        44.2504         30.5004
  22148078.1194   -1426652.00849  -1097176.53647                  22148075.7124
        49.0004         36.5004
  20826354.4684   -1131251.40249   -868613.85048                  20826351.1244
        51.0004         43.7504
  22241574.4494     954199.36349    733837.61347                  22241571.9604
        46.0004         38.0004
 04  6 29 22 46  0.0000000  0  4G11G16G20G25
  23237054.0334     933490.85249    717138.06947                  23237052.2614
        44.5004         30.2504
  22142555.1974   -1455676.82849  -1119793.24647                  22142553.2314
        49.5004         36.5004
  20821998.6574   -1154140.42649   -886449.44048                  20821996.0164
        51.2504         44.0004
  22245056.4824     972497.30949    748095.75547                  22245054.4294
        48.0004         38.0004
 04  6 29 22 46 10.0000000  0  4G11G16G20G25
  23240394.8944     951047.15249    730818.28647                  23240393.3914
        44.0004         30.2504
  22137030.3584   -1484707.96149  -1142414.88547                  22137028.1764
        49.2504         37.0004
  20817643.0354   -1177029.67649   -904285.20848                  20817639.7004
        51.7504         44.0004
  22248532.5174     990765.03549    762330.35147                  22248530.0924
        48.0004         37.7504
 04  6 29 22 46 20.0000000  0  4G11G16G20G25
  23243729.7534     968573.30949    744475.01547                  23243728.5404
        43.7504         30.2504
  22131504.9974   -1513746.83249  -1165042.56747                  22131502.7234
        50.0004         36.5004
  20813287.1504   -1199920.62149   -922122.31548                  20813283.8664
        51.7504         43.7504
  22252002.9904    1009000.93049    776540.11947                  22252000.5804
        47.2504         37.5004
 04  6 29 22 46 30.0000000  0  4G11G16G20G25
  23247059.3314     986071.69549    758110.07747                  23247058.0244
        43.2504         29.2504
  22125977.8504   -1542790.86749  -1187674.25147                  22125975.5574
        49.2504         35.5004
  20808930.9384   -1222810.66049   -939958.70748                  20808927.7724
        51.2504         42.7504
  22255467.3874    1027207.39149    790726.97147                  22255465.0984
        49.0004         37.5004
 04  6 29 22 46 40.0000000  0  4G11G16G20G25
  23250384.0134    1003542.42249    771723.60447                  23250383.1914
        43.5004         29.5004
  22120449.9824   -1571839.82049  -1210309.78347                  22120447.1794
        49.0004         36.5004
  20804575.4724   -1245699.61349   -957794.24548                  20804572.1434
        51.2504         43.7504
  22258926.5174    1045384.55549    804890.99047                  22258923.6314
        46.7504         37.7504
 04  6 29 22 46 50.0000000  0  4G11G16G20G25
  23253702.6674    1020982.64549    785313.37847                  23253702.3374
        42.0004         29.5004
  22114920.6954   -1600896.26249  -1232951.14547                  22114918.2724
        49.0004         36.5004
  20800219.3054   -1268590.17249   -975631.03348                  20800216.5164
        51.0004         44.0004
  22262379.3984    1063529.68449    819030.04247                  22262376.6104
        47.7504         37.5004
 04  6 29 22 47  0.0000000  0  4G11G16G20G25
  23257016.2544    1038392.64149    798879.56747                  23257014.2644
        43.7504         29.5004
  22109389.7034   -1629959.71149  -1255597.97347                  22109387.5664
        49.0004         36.5004
  20795863.4364   -1291481.78549   -993468.64048                  20795860.6024
        51.5004         43.7504
  22265826.2974    1081643.05549    833144.36347                  22265824.1034
        46.7504         37.0004
 04  6 29 22 47 10.0000000  0  4G11G16G20G25
  23260324.1524    1055777.26649    812426.01847                  23260323.3074
        41.7504         29.5004
  22103858.7454   -1659025.16849  -1278246.35347                  22103856.8344
        49.2504         37.0004
  20791507.8954   -1314369.50849  -1011303.22748                  20791504.9714
        51.5004         43.7504
  22269267.3574    1099729.48049    847237.67047                  22269265.6184
        46.2504         37.5004
 04  6 29 22 47 20.0000000  0  4G11G16G20G25
  23263626.6864    1073132.32849    825949.42647                  23263625.3634
        43.2504         29.0004
  22098326.6954   -1688096.53949  -1300899.35847                  22098324.5404
        49.0004         36.5004
  20787152.4714   -1337257.25849  -1029137.83948                  20787148.9644
        51.5004         43.5004
  22272703.2634    1117784.85549    861306.78047                  22272700.7864
        46.7504         37.0004
 04  6 29 22 47 30.0000000  0  4G11G16G20G25
  23266923.8834    1090460.10249    839451.53847                  23266922.9724
        43.5004         30.0004
  22092794.1944   -1717171.41849  -1323555.07747                  22092791.7464
        49.0004         36.5004
  20782797.6004   -1360142.58249  -1046970.54748                  20782794.0324
        50.7504         43.7504
  22276133.8674    1135811.45749    875353.47747                  22276131.4244
        47.7504         36.7504
 04  6 29 22 47 40.0000000  0  4G11G16G20G25
  23270215.6294    1107759.17249    852931.29147                  23270214.8044
        42.7504         29.7504
  22087260.1454   -1746250.97349  -1346214.47147                  22087257.7624
        48.7504         35.5004
  20778442.9764   -1383026.70749  -1064802.35148                  20778439.4574
        50.7504         43.0004
  22279558.4974    1153807.85949    889376.62647                  22279555.9144
        46.0004         36.2504
 04  6 29 22 47 50.0000000  0  4G11G16G20G25
  23273501.6494    1125029.38749    866388.61047                  23273501.5904
        41.7504         30.2504
  22081726.0184   -1775335.09849  -1368877.39847                  22081723.4874
        49.2504         36.2504
  20774088.4044   -1405909.57449  -1082633.13148                  20774085.2434
        50.5004         44.0004
  22282977.7784    1171774.09849    903376.30847                  22282975.3434
        46.0004         37.0004
 04  6 29 22 48  0.0000000  0  4G11G16G20G25
  23276783.8084    1142274.00449    879825.93547                  23276783.1104
        42.5004         30.5004
  22076191.3254   -1804420.39549  -1391541.24547                  22076188.7194
        49.0004         36.7504
  20769735.0894   -1428787.69549  -1100460.24148                  20769731.8924
        51.0004         43.7504
  22286391.3194    1189713.43049    917355.00147                  22286389.0804
        46.5004         37.2504
 04  6 29 22 48 10.0000000  0  4G11G16G20G25
  23280061.3964    1159496.59449    893246.11047                  23280059.9924
        44.7504         30.5004
  22070656.7364   -1833503.02349  -1414203.02747                  22070653.9694
        48.5004         36.5004
  20765383.2074   -1451657.37549  -1118280.76948                  20765380.1344
        51.2504         43.7504
  22289800.8564    1207629.43849    931315.51147                  22289798.5574
        47.0004         37.5004
 04  6 29 22 48 20.0000000  0  4G11G16G20G25
  23283334.0434    1176690.64149    906644.02947                  23283332.3674
        45.0004         30.7504
  22065122.1144   -1862589.42249  -1436867.73247                  22065119.1574
        49.5004         36.5004
  20761031.5904   -1474525.05149  -1136099.73548                  20761028.2304
        51.0004         43.5004
  22293204.3054    1225515.59049    945252.76647                  22293201.9814
        47.5004         37.5004
 04  6 29 22 48 30.0000000  0  4G11G16G20G25
  23286600.1514    1193858.09449    920021.26347                  23286599.4934
        44.5004         30.0004
  22059586.2734   -1891677.37149  -1459533.64247                  22059583.7404
        49.5004         36.2504
  20756680.5354   -1497388.54749  -1153915.44148                  20756677.2094
        51.5004         43.5004
  22296602.5614    1243373.80149    959168.27047                  22296600.0504
        47.2504         37.0004
 04  6 29 22 48 40.0000000  0  4G11G16G20G25
  23289862.0954    1211000.21149    933378.73547                  23289860.4964
        42.2504         29.2504
  22054051.1994   -1920765.39549  -1482199.61347                  22054048.8274
        49.2504         35.5004
  20752330.8604   -1520246.37149  -1171726.72148                  20752327.6474
        50.0004         43.2504
  22299996.1204    1261205.52749    973063.11347                  22299993.2834
        47.2504         37.0004
 04  6 29 22 48 50.0000000  0  4G11G16G20G25
  23293118.8854    1228115.23849    946715.06547                  23293117.8054
        44.0004         29.0004
  22048515.1364   -1949855.00449  -1504866.82647                  22048513.0644
        49.0004         36.0004
  20747981.8454   -1543100.09449  -1189534.81848                  20747978.7754
        50.7504         43.7504
  22303384.1284    1279008.98849    986935.91947                  22303381.3504
        46.5004         37.7504
 04  6 29 22 49  0.0000000  0  4G11G16G20G25
  23296369.9394    1245198.56349    960026.71847                  23296368.6544
        44.7504         29.2504
  22042978.9834   -1978950.57049  -1527538.67747                  22042976.3324
        48.5004         36.0004
  20743633.2134   -1565954.11749  -1207343.14948                  20743629.9034
        51.0004         44.0004
  22306765.9504    1296779.62549   1000783.17447                  22306763.0944
        46.2504         37.5004
 04  6 29 22 49 10.0000000  0  4G11G16G20G25
  23299616.1894    1262255.92649    973318.15947                  23299615.2034
        44.0004         29.0004
  22037442.2844   -2008046.23849  -1550210.60247                  22037439.6344
        49.0004         36.5004
  20739285.1204   -1588802.56249  -1225147.13048                  20739282.1834
        51.2504         44.2504
  22310141.7534    1314523.19549   1014609.33047                  22310139.2104
        46.2504         37.5004
 04  6 29 22 49 20.0000000  0  4G11G16G20G25
  23302857.1744    1279288.42249    986590.18047                  23302855.7614
        41.5004         29.7504
  22031905.4644   -2037140.71149  -1572881.61947                  22031903.2044
        49.0004         36.5004
  20734938.4934   -1611644.12549  -1242945.75948                  20734935.2674
        50.2504         43.7504
  22313513.1424    1332240.78949   1028415.22747                  22313511.2104
        45.2504         37.2504
 04  6 29 22 49 30.0000000  0  4G11G16G20G25
  23306094.4364    1296297.57849    999844.06547                  23306093.0174
        43.2504         29.5004
  22026369.9244   -2066232.25949  -1595550.29747                  22026367.4274
        46.7504         36.0004
  20730593.4174   -1634477.07849  -1260737.66448                  20730590.2604
        51.0004         43.5004
  22316880.4424    1349933.96149   1042202.11647                  22316877.7924
        45.0004         37.2504
 04  6 29 22 49 40.0000000  0  4G11G16G20G25
  23309325.8314    1313280.14849   1013077.19847                  23309324.5854
        43.2504         31.0004
  22020833.7684   -2095323.88349  -1618219.10947                  22020831.2794
        47.0004         36.0004
  20726249.6264   -1657304.56649  -1278525.31848                  20726246.6014
        49.7504         43.5004
  22320241.7894    1367599.50449   1055967.47647                  22320239.3914
        44.7504         37.2504
 04  6 29 22 49 50.0000000  0  4G11G16G20G25
  23312552.0294    1330235.73449   1026289.31147                  23312551.1124
        41.5004         29.2504
  22015297.5434   -2124415.80949  -1640888.12847                  22015295.1024
        48.5004         35.5004
  20721906.8344   -1680126.71149  -1296308.80948                  20721903.7324
        49.7504         43.2504
  22323598.4374    1385237.03949   1069710.98547                  22323595.9444
        45.2504         36.7504
 04  6 29 22 50  0.0000000  0  4G11G16G20G25
  23315773.7234    1347162.21149   1039478.74747                  23315772.3244
        43.5004         29.0004
  22009761.2974   -2153509.97349  -1663558.88347                  22009758.6854
        49.5004         36.2504
  20717564.0844   -1702945.57849  -1314089.73748                  20717561.1064
        51.0004         43.5004
  22326948.9634    1402844.44949   1083431.04547                  22326946.6274
        44.5004         37.0004
 04  6 29 22 50 10.0000000  0  4G11G16G20G25
  23318989.7424    1364063.33249   1052648.41847                  23318988.1494
        43.7504         29.0004
  22004225.2704   -2182602.31649  -1686228.22747                  22004222.4524
        49.5004         36.5004
  20713223.4104   -1725757.07449  -1331864.94048                  20713220.1574
        50.0004         44.0004
  22330294.8064    1420425.57449   1097130.62047                  22330292.0304
        45.5004         37.5004
 04  6 29 22 50 20.0000000  0  4G11G16G20G25
  23322199.7104    1380934.20349   1065794.54047                  23322199.0224
        43.5004         30.5004
  21998688.4164   -2211697.55149  -1708899.81147                  21998686.1414
        49.0004         37.5004
  20708883.1664   -1748565.93449  -1349638.05948                  20708880.1364
        50.0004         44.2504
  22333634.2084    1437975.51249   1110805.88247                  22333631.6384
        45.7504         38.2504
 04  6 29 22 50 30.0000000  0  4G11G16G20G25
  23325405.5284    1397781.00449   1078921.90147                  23325404.3734
        42.2504         29.0004
  21993152.3954   -2240789.35949  -1731568.73147                  21993150.2334
        50.0004         37.0004
  20704544.4834   -1771365.89149  -1367404.25348                  20704541.2694
        50.2504         44.0004
  22336968.8024    1455500.42249   1124461.65147                  22336966.1464
        45.0004         37.0004
 04  6 29 22 50 40.0000000  0  4G11G16G20G25
  23328606.3204    1414600.36349   1092027.84947                  23328605.3694
        43.5004         30.2504
  21987616.7104   -2269880.90649  -1754237.45247                  21987614.0344
        50.2504         37.2504
  20700206.6684   -1794160.09849  -1385165.97348                  20700203.5624
        50.5004         43.7504
  22340298.7864    1472997.16449   1138095.47347                  22340296.1414
        45.5004         37.0004
 04  6 29 22 50 50.0000000  0  4G11G16G20G25
  23331802.4824    1431395.85249   1105115.22947                  23331801.8314
        43.0004         29.5004
  21982081.8964   -2298968.31249  -1776902.95647                  21982078.8294
        50.2504         37.0004
  20695871.2634   -1816944.67649  -1402920.18748                  20695867.8084
        51.0004         43.7504
  22343623.5974    1490469.23849   1151710.07547                  22343620.8554
        45.2504         36.7504
 04  6 29 22 51  0.0000000  0  4G11G16G20G25
  23334993.4934    1448165.50049   1118182.46747                  23334992.1114
        43.2504         28.5004
  21976546.7474   -2328053.46149  -1799566.68447                  21976544.2374
        49.5004         36.2504
  20691536.8924   -1839721.53549  -1420668.39048                  20691533.8884
        51.5004         43.2504
  22346942.9404    1507914.68049   1165303.92047                  22346940.7574
        45.7504         36.0004
 04  6 29 22 51 10.0000000  0  4G11G16G20G25
  23338179.0194    1464906.77749   1131227.57547                  23338178.4234
        43.2504         27.5004
  21971012.1254   -2357138.66049  -1822230.45847                  21971009.6114
        49.5004         37.0004
  20687203.5254   -1862492.97349  -1438412.35148                  20687200.5514
        50.7504         43.7504
  22350257.5374    1525331.05949   1178875.12247                  22350255.2914
        44.7504         36.5004
 04  6 29 22 51 20.0000000  0  4G11G16G20G25
  23341360.3664    1481624.69149   1144254.50447                  23341359.5494
        44.7504         28.0004
  21965478.3464   -2386218.69549  -1844890.20347                  21965476.0974
        50.2504         36.5004
  20682872.1864   -1885253.85249  -1456148.10248                  20682868.8384
        52.0004         44.0004
  22353566.7354    1542723.35549   1192427.55847                  22353564.7434
        46.5004         36.2504
 04  6 29 22 51 30.0000000  0  4G11G16G20G25
  23344536.0144    1498315.09449   1157259.96747                  23344535.4434
        44.0004         27.7504
  21959944.8434   -2415297.37549  -1867548.91247                  21959942.1294
        50.0004         37.0004
  20678542.3234   -1908008.14849  -1473878.73948                  20678539.1164
        51.5004         44.5004
  22356871.3214    1560087.44149   1205957.99447                  22356868.7064
        45.5004         37.5004
 04  6 29 22 51 40.0000000  0  4G11G16G20G25
  23347708.0584    1514980.56349   1170246.01147                  23347707.1364
        44.5004         28.7504
  21954412.0634   -2444372.01649  -1890204.46247                  21954409.2844
        49.5004         37.2504
  20674214.2874   -1930753.02349  -1491602.01348                  20674211.2154
        51.5004         44.2504
  22360171.1314    1577425.86349   1219468.45447                  22360168.4454
        47.2504         37.2504
 04  6 29 22 51 50.0000000  0  4G11G16G20G25
  23350874.9134    1531620.60949   1183212.27547                  23350873.4714
        45.5004         27.5004
  21948880.3464   -2473442.91049  -1912857.08047                  21948877.3964
        49.5004         37.0004
  20669887.6184   -1953488.79349  -1509318.19348                  20669884.3874
        51.0004         44.0004
  22363464.8724    1594738.25049   1232958.61947                  22363462.4634
        46.5004         36.5004
 04  6 29 22 52  0.0000000  0  4G11G16G20G25
  23354035.7834    1548234.94949   1196158.47847                  23354035.1514
        45.5004         28.5004
  21943349.0094   -2502510.19949  -1935506.90147                  21943346.0954
        49.0004         37.0004
  20665562.8444   -1976215.64849  -1527027.41348                  20665560.0254
        51.0004         44.0004
  22366754.5344    1612024.41449   1246428.35147                  22366752.4704
        46.0004         36.7504
 04  6 29 22 52 10.0000000  0  4G11G16G20G25
  23357193.3944    1564825.19549   1209085.91147                  23357192.4624
        44.7504         27.7504
  21937818.3304   -2531572.09449  -1958152.51847                  21937815.6714
        49.0004         36.2504
  20661240.1684   -1998931.78549  -1544728.30448                  20661236.7674
        50.5004         43.0004
  22370038.9814    1629285.92649   1259878.87947                  22370036.5644
        46.0004         35.5004
 04  6 29 22 52 20.0000000  0  4G11G16G20G25
  23360344.6734    1581385.86349   1221990.29547                  23360343.8324
        43.0004         29.5004
  21932287.9034   -2560633.80949  -1980797.99647                  21932285.9054
        49.0004         36.5004
  20656918.3264   -2021642.48449  -1562424.95848                  20656915.5214
        49.5004         44.2504
  22373318.1384    1646517.37149   1273305.97547                  22373315.8954
        45.0004         36.7504
 04  6 29 22 52 30.0000000  0  4G11G16G20G25
  23363491.0224    1597920.80549   1234874.64747                  23363490.4474
        42.7504         28.7504
  21926758.8294   -2589691.26249  -2003440.14047                  21926756.1464
        48.5004         36.7504
  20652598.5054   -2044343.60949  -1580114.12748                  20652595.2464
        49.0004         44.0004
  22376592.7894    1663722.50449   1286712.57047                  22376589.8174
        45.5004         37.0004
 04  6 29 22 52 40.0000000  0  4G11G16G20G25
  23366633.3724    1614432.61349   1247740.98147                  23366632.1984
        44.7504         28.5004
  21921230.8914   -2618741.72349  -2026076.86047                  21921228.2884
        49.2504         37.5004
  20648280.9464   -2067032.50849  -1597793.79048                  20648277.5364
        50.2504         44.5004
  22379861.4864    1680904.11749   1300100.82347                  22379859.2094
        46.2504         37.0004
 04  6 29 22 52 50.0000000  0  4G11G16G20G25
  23369770.3274    1630917.40649   1260586.22647                  23369769.7184
        45.7504         28.7504
  21915702.9454   -2647788.71149  -2048710.86247                  21915700.8644
        49.2504         37.2504
  20643965.1574   -2089712.79349  -1615466.73748                  20643961.8774
        49.5004         44.0004
  22383126.3994    1698058.41449   1313467.80447                  22383123.8024
        45.0004         37.0004
 04  6 29 22 53  0.0000000  0  4G11G16G20G25
  23372902.4254    1647374.67249   1273410.03347                  23372901.2644
        45.7504         28.0004
  21910176.2254   -2676832.70749  -2071342.52447                  21910173.6254
        49.0004         37.0004
  20639650.7834   -2112384.89149  -1633133.30148                  20639647.6104
        48.0004         44.0004
  22386384.9414    1715184.80949   1326813.05647                  22386383.2694
        45.5004         36.7504
 04  6 29 22 53 10.0000000  0  4G11G16G20G25
  23376029.7054    1663810.64149   1286217.25947                  23376029.0624
        45.0004         28.5004
  21904650.9104   -2705867.24249  -2093966.83047                  21904648.2394
        49.7504         37.2504
  20635339.0354   -2135042.41449  -1650788.52048                  20635335.6364
        48.5004         44.2504
  22389639.7254    1732289.58249   1340141.43647                  22389637.4574
        45.5004         36.5004
 04  6 29 22 53 20.0000000  0  4G11G16G20G25
  23379151.8284    1680218.28149   1299002.41247                  23379151.4704
        45.2504         28.2504
  21899126.5654   -2734899.13749  -2116589.08047                  21899123.8374
        50.0004         37.0004
  20631028.9274   -2157692.17249  -1668437.68248                  20631025.9224
        48.7504         43.0004
  22392890.1544    1749365.63349   1353447.43247                  22392886.9834
        45.0004         35.2504
 04  6 29 22 53 30.0000000  0  4G11G16G20G25
  23382269.6604    1696600.90249   1311768.03747                  23382269.2594
        45.5004         29.0004
  21893602.9554   -2763924.85549  -2139206.49547                  21893600.5714
        49.7504         37.5004
  20626721.0584   -2180330.60949  -1686078.01748                  20626717.9394
        48.5004         44.2504
  22396134.3284    1766416.39849   1366733.74247                  22396131.7144
        45.2504         36.7504
 04  6 29 22 53 40.0000000  0  4G11G16G20G25
  23385381.9154    1712956.03949   1324512.29147                  23385381.3704
        44.7504         28.0004
  21888080.4744   -2792946.62149  -2161820.84047                  21888077.6834
        49.2504         37.0004
  20622414.6804   -2202960.03549  -1703711.32948                  20622411.6984
        49.0004         44.2504
  22399373.6904    1783439.48449   1379998.47947                  22399371.2264
        46.0004         37.0004
 04  6 29 22 53 50.0000000  0  4G11G16G20G25
  23388489.0414    1729284.39149   1337235.66547                  23388487.8964
        42.0004         29.0004
  21882558.4474   -2821963.56249  -2184431.42147                  21882556.4934
        50.5004         37.5004
  20618110.2054   -2225579.52349  -1721336.88848                  20618107.3204
        48.0004         44.2504
  22402608.0544    1800435.68849   1393242.27947                  22402605.7994
        44.2504         37.0004
 04  6 29 22 54  0.0000000  0  4G11G16G20G25
  23391591.6224    1745588.72349   1349940.29047                  23391590.9384
        42.2504         29.5004
  21877038.4574   -2850972.79349  -2207036.01647                  21877035.7504
        50.0004         37.5004
  20613808.6194   -2248186.20749  -1738952.48748                  20613805.1024
        48.5004         44.5004
  22405837.7494    1817407.68449   1406467.19447                  22405835.6404
        44.0004         36.5004
 04  6 29 22 54 10.0000000  0  4G11G16G20G25
  23394689.8624    1761871.99249   1362628.52147                  23394689.1834
        44.0004         28.5004
  21871519.9004   -2879971.06249  -2229632.04647                  21871517.4824
        50.2504         37.5004
  20609509.5494   -2270776.92249  -1756555.63848                  20609506.3714
        48.7504         44.2504
  22409063.1434    1834358.46949   1419675.59947                  22409060.8854
        44.7504         36.2504
 04  6 29 22 54 20.0000000  0  4G11G16G20G25
  23397784.0704    1778131.16449   1375297.99247                  23397783.8694
        46.0004         29.5004
  21866003.7004   -2908961.31649  -2252221.83847                  21866000.9904
        50.5004         37.0004
  20605213.3494   -2293354.55149  -1774148.59648                  20605210.4564
        49.5004         44.0004
  22412284.0064    1851285.00849   1432865.09047                  22412281.8704
        46.0004         36.2504
 04  6 29 22 54 30.0000000  0  4G11G16G20G25
  23400874.0794    1794369.90649   1387951.52047                  23400873.8354
        46.5004         30.0004
  21860488.8854   -2937939.60549  -2274802.29647                  21860486.1824
        49.5004         36.7504
  20600919.7654   -2315915.27049  -1791728.36648                  20600916.9474
        49.2504         44.0004
  22415500.9814    1868191.01649   1446038.59847                  22415498.7934
        46.2504         35.5004
 04  6 29 22 54 40.0000000  0  4G11G16G20G25
  23403958.7134    1810579.33249   1400582.20647                  23403958.4364
        45.5004         29.5004
  21854975.0654   -2966914.57449  -2297380.18447                  21854972.4914
        50.0004         37.0004
  20596628.4154   -2338467.74249  -1809301.71448                  20596625.2884
        49.5004         44.2504
  22418712.9414    1885067.68449   1459189.25947                  22418710.2824
        45.0004         36.5004
 04  6 29 22 54 50.0000000  0  4G11G16G20G25
  23407037.4974    1826757.62149   1413188.63347                  23407036.6824
        45.2504         29.7504
  21849461.5354   -2995887.98449  -2319956.84747                  21849458.9634
        51.0004         37.0004
  20592338.0004   -2361013.63349  -1826869.94448                  20592334.7774
        49.7504         44.5004
  22421918.3634    1901913.11749   1472315.55847                  22421916.1674
        44.7504         36.7504
 04  6 29 22 55  0.0000000  0  4G11G16G20G25
  23410111.1204    1842911.48049   1425776.03847                  23410111.0224
        44.5004         29.5004
  21843949.9984   -3024852.82449  -2342526.83947                  21843947.4314
        49.7504         38.0004
  20588050.2914   -2383546.01649  -1844427.63648                  20588047.0564
        49.5004         44.7504
  22425119.8264    1918734.18049   1485422.87247                  22425117.2454
        45.5004         36.5004
 04  6 29 22 55 10.0000000  0  4G11G16G20G25
  23413180.4704    1859039.65249   1438343.42047                  23413180.4444
        45.0004         29.5004
  21838439.3424   -3053810.16049  -2365090.97647                  21838436.6964
        50.2504         37.2504
  20583764.5484   -2406066.00049  -1861975.67948                  20583761.8254
        48.0004         44.0004
  22428315.3494    1935529.61349   1498510.22547                  22428312.9794
        45.5004         36.0004
 04  6 29 22 55 20.0000000  0  4G11G16G20G25
  23416245.8914    1875146.16049   1450893.91847                  23416245.6094
        44.5004         29.2504
  21832931.1754   -3082755.71949  -2387645.94547                  21832928.0394
        50.0004         37.7504
  20579482.6284   -2428569.32049  -1879510.73248                  20579479.7104
        48.0004         44.2504
  22431507.4684    1952303.52349   1511580.79247                  22431505.2504
        47.5004         35.5004
 04  6 29 22 55 30.0000000  0  4G11G16G20G25
  23419305.0914    1891224.72749   1463422.62747                  23419305.1414
        45.0004         28.2504
  21827424.0094   -3111695.69149  -2410196.54647                  21827421.2444
        49.7504         37.5004
  20575202.2374   -2451062.23849  -1897037.67248                  20575199.1274
        48.2504         43.7504
  22434694.2064    1969049.68449   1524629.74747                  22434691.4974
        46.0004         35.2504
 04  6 29 22 55 40.0000000  0  4G11G16G20G25
  23422360.3474    1907278.18849   1475931.77547                  23422359.7874
        44.0004         28.7504
  21821918.5804   -3140626.87149  -2432740.29747                  21821915.6904
        50.0004         38.5004
  20570924.8814   -2473541.59849  -1914554.05648                  20570921.7964
        49.5004         44.5004
  22437875.9924    1985770.96949   1537659.30347                  22437873.1924
        47.2504         36.2504
 04  6 29 22 55 50.0000000  0  4G11G16G20G25
  23425411.4774    1923310.06649   1488424.09547                  23425410.9004
        44.2504         28.7504
  21816415.8564   -3169545.64549  -2455274.40547                  21816412.5594
        50.2504         37.7504
  20566650.4214   -2496003.70749  -1932056.99348                  20566647.3404
        50.7504         44.5004
  22441054.1064    2002470.89549   1550672.21647                  22441051.5324
        47.7504         36.5004
 04  6 29 22 56  0.0000000  0  4G11G16G20G25
  23428457.9064    1939316.99249   1500897.00947                  23428456.9974
        44.5004         29.7504
  21810914.4794   -3198455.24649  -2477801.35847                  21810911.4494
        49.5004         38.0004
  20562378.6544   -2518451.76249  -1949548.98248                  20562375.5594
        51.7504         44.5004
  22444226.8054    2019146.08249   1563665.86647                  22444224.3934
        46.7504         35.7504
 04  6 29 22 56 10.0000000  0  4G11G16G20G25
  23431498.1914    1955297.04749   1513348.96947                  23431498.1944
        44.7504         30.0004
  21805414.5514   -3227357.30549  -2500322.42547                  21805411.5284
        50.2504         37.7504
  20558108.9344   -2540887.46949  -1967031.33548                  20558105.9404
        52.2504         44.5004
  22447395.3404    2035794.73849   1576638.84347                  22447392.4704
        48.0004         36.2504
 04  6 29 22 56 20.0000000  0  4G11G16G20G25
  23434533.1474    1971250.19549   1525779.97247                  23434533.6214
        44.2504         29.0004
  21799916.2514   -3256251.55149  -2522837.40347                  21799913.7074
        49.7504         37.7504
  20553842.2584   -2563310.60949  -1984503.91948                  20553839.3754
        51.5004         44.2504
  22450558.5574    2052416.97749   1589591.21447                  22450555.9324
        47.7504         36.0004
 04  6 29 22 56 30.0000000  0  4G11G16G20G25
  23437564.8024    1987179.98449   1538192.74447                  23437565.0644
        43.7504         29.2504
  21794419.4614   -3285134.37549  -2545343.47647                  21794417.1194
        50.5004         37.5004
  20549578.4544   -2585717.64849  -2001963.93848                  20549575.2854
        50.7504         44.0004
  22453717.4024    2069016.19949   1602525.67247                  22453714.5924
        46.7504         36.0004
 04  6 29 22 56 40.0000000  0  4G11G16G20G25
  23440591.9004    2003084.73449   1550586.02147                  23440591.6094
        44.5004         28.5004
  21788925.3774   -3314007.27749  -2567841.83847                  21788922.9034
        49.5004         36.7504
  20545317.4084   -2608109.98849  -2019412.51248                  20545313.8734
        51.0004         43.7504
  22456870.5254    2085590.83249   1615440.96347                  22456868.4664
        47.2504         35.2504
 04  6 29 22 56 50.0000000  0  4G11G16G20G25
  23443612.5704    2018959.87549   1562956.22347                  23443612.3974
        44.0004         28.0004
  21783432.1704   -3342874.67649  -2590335.90447                  21783429.4954
        50.5004         37.5004
  20541058.4424   -2630492.14149  -2036853.15248                  20541054.8994
        50.7504         44.7504
  22460019.9954    2102136.18049   1628333.43247                  22460017.3234
        47.5004         36.0004
 04  6 29 22 57  0.0000000  0  4G11G16G20G25
  23446628.9124    2034809.03149   1575306.20947                  23446628.2804
        44.0004         30.0004
  21777940.7134   -3371732.68749  -2612822.64247                  21777937.9934
        50.0004         37.7504
  20536801.2634   -2652860.22349  -2054282.81848                  20536798.4324
        51.0004         45.0004
  22463163.1504    2118655.97349   1641205.99747                  22463160.7724
        47.7504         35.7504
 04  6 29 22 57 10.0000000  0  4G11G16G20G25
  23449640.9254    2050638.03549   1587640.46747                  23449640.7864
        43.5004         29.5004
  21772452.1524   -3400575.24249  -2635297.34747                  21772449.6324
        49.7504         38.5004
  20532548.8354   -2675208.18749  -2071696.81648                  20532545.8014
        49.0004         45.0004
  22466303.2544    2135156.21549   1654063.32247                  22466300.5264
        47.5004         36.0004
 04  6 29 22 57 20.0000000  0  4G11G16G20G25
  23452648.3954    2066440.80149   1599954.27347                  23452648.1294
        41.0004         30.2504
  21766965.2914   -3429408.25449  -2657764.60147                  21766962.5374
        49.5004         38.0004
  20528299.0724   -2697542.00849  -2089099.79448                  20528296.0444
        48.2504         44.7504
  22469438.4224    2151630.68449   1666900.56847                  22469436.0084
        46.5004         36.0004
 04  6 29 22 57 30.0000000  0  4G11G16G20G25
  23455650.3994    2082215.55949   1612246.25047                  23455649.8444
        42.5004         29.5004
  21761480.0644   -3458233.35949  -2680225.71247                  21761477.3284
        49.5004         38.2504
  20524051.4434   -2719863.25449  -2106492.97048                  20524048.1644
        49.7504         44.2504
  22472568.3044    2168077.67649   1679716.38847                  22472565.4344
        47.0004         35.5004
 04  6 29 22 57 40.0000000  0  4G11G16G20G25
  23458646.5414    2097965.27349   1624518.73647                  23458646.7354
        43.2504         29.2504
  21755996.9554   -3487047.34849  -2702678.14947                  21755994.3564
        49.0004         38.5004
  20519806.8264   -2742168.77749  -2123873.89448                  20519803.8114
        49.0004         44.2504
  22475693.4954    2184500.28149   1692513.24247                  22475690.4214
        46.7504         36.0004
 04  6 29 22 57 50.0000000  0  4G11G16G20G25
  23461640.6774    2113692.67649   1636773.82447                  23461639.6474
        42.0004         28.2504
  21750516.4324   -3515847.28549  -2725119.65047                  21750514.1934
        49.7504         37.2504
  20515565.7614   -2764455.69949  -2141240.32348                  20515562.4244
        49.0004         43.7504
  22478813.9264    2200901.20749   1705293.16347                  22478811.4924
        47.0004         35.0004
 04  6 29 22 58  0.0000000  0  4G11G16G20G25
  23464627.6974    2129394.07449   1649008.63247                  23464627.2684
        44.0004         29.5004
  21745038.1584   -3544636.73449  -2747552.94847                  21745035.5234
        50.0004         38.5004
  20511327.2524   -2786727.51649  -2158594.97248                  20511324.4764
        49.0004         45.5004
  22481930.2874    2217276.77349   1718053.34047                  22481927.8924
        47.0004         35.5004
 04  6 29 22 58 10.0000000  0  4G11G16G20G25
  23467610.8004    2145070.32849   1661223.86347                  23467610.7604
        40.5004         28.7504
  21739561.5914   -3573414.48449  -2769977.15947                  21739559.4514
        49.5004         38.2504
  20507092.3054   -2808983.10249  -2175936.99048                  20507088.9204
        48.2504         44.5004
  22485041.7574    2233628.00049   1730794.54547                  22485039.0544
        46.0004         35.7504
 04  6 29 22 58 20.0000000  0  4G11G16G20G25
  23470589.5484    2160719.25849   1673417.79947                  23470588.9394
        42.0004         30.2504
  21734087.6104   -3602182.60549  -2792393.87247                  21734084.7644
        50.0004         38.0004
  20502860.1224   -2831224.53149  -2193267.97848                  20502856.7814
        48.2504         45.0004
  22488148.4424    2249952.72349   1743515.09847                  22488145.7094
        47.5004         35.7504
 04  6 29 22 58 30.0000000  0  4G11G16G20G25
  23473563.1494    2176346.95749   1685595.22447                  23473562.6984
        44.0004         29.0004
  21728616.0244   -3630934.77749  -2814798.14047                  21728613.4154
        50.0004         37.7504
  20498631.3204   -2853445.53949  -2210583.03948                  20498627.7174
        48.2504         45.0004
  22491250.8974    2266257.02749   1756219.74447                  22491248.5644
        47.5004         36.2504
 04  6 29 22 58 40.0000000  0  4G11G16G20G25
  23476532.2494    2191951.24649   1697754.34547                  23476532.1824
        43.7504         30.2504
  21723147.4914   -3659673.07049  -2837191.60147                  21723144.9584
        50.0004         38.0004
  20494406.5614   -2875648.20349  -2227883.81448                  20494403.4034
        49.2504         44.5004
  22494349.2644    2282538.67649   1768906.73747                  22494347.0184
        48.0004         35.5004
 04  6 29 22 58 50.0000000  0  4G11G16G20G25
  23479496.7484    2207531.02749   1709894.43247                  23479496.4684
        44.2504         28.7504
  21717681.0144   -3688398.34449  -2859574.91347                  21717678.6094
        50.2504         37.7504
  20490184.9754   -2897833.35949  -2245170.94248                  20490181.6154
        51.2504         44.7504
  22497443.3884    2298796.67649   1781575.30747                  22497440.7474
        48.0004         35.5004
 04  6 29 22 59  0.0000000  0  4G11G16G20G25
  23482457.8674    2223089.95749   1722018.22847                  23482457.2064
        43.7504         27.2504
  21712218.2234   -3717106.70349  -2881945.05747                  21712215.4924
        50.2504         37.5004
  20485967.0754   -2919997.24249  -2262441.50448                  20485964.0424
        51.0004         43.7504
  22500533.0874    2315034.72749   1794228.32247                  22500530.5754
        46.7504         35.0004
 04  6 29 22 59 10.0000000  0  4G11G16G20G25
  23485413.9544    2238624.71149   1734123.20747                  23485413.3364
        42.7504         29.0004
  21706757.7514   -3745801.40249  -2904304.54047                  21706754.9434
        50.2504         38.0004
  20481753.2044   -2942142.96549  -2279697.91448                  20481749.7964
        51.5004         44.7504
  22503618.6554    2331249.55149   1806863.24447                  22503616.3034
        47.5004         36.5004
 04  6 29 22 59 20.0000000  0  4G11G16G20G25
  23488364.6874    2254135.66049   1746209.65047                  23488365.3974
        41.2504         27.2504
  21701299.6454   -3774481.74249  -2926652.84347                  21701297.2454
        50.5004         37.7504
  20477542.4254   -2964269.93049  -2296939.69648                  20477539.2034
        50.7504         44.5004
  22506700.2004    2347441.59049   1819480.40847                  22506697.7114
        46.7504         36.0004
 04  6 29 22 59 30.0000000  0  4G11G16G20G25
  23491312.8554    2269624.87549   1758279.13447                  23491313.3614
        43.2504         29.2504
  21695845.3014   -3803145.50449  -2948988.22847                  21695842.7474
        50.2504         38.2504
  20473335.3984   -2986375.91849  -2314165.13948                  20473332.7104
        50.0004         44.7504
  22509777.4144    2363612.88749   1832081.40447                  22509775.2814
        47.5004         36.2504
 04  6 29 22 59 40.0000000  0  4G11G16G20G25
  23494256.1594    2285092.23849   1770331.57947                  23494256.6434
        43.5004         28.5004
  21690393.9924   -3831792.54749  -2971310.57247                  21690391.4354
        50.2504         38.5004
  20469133.0234   -3008460.88749  -2331374.20048                  20469130.1244
        48.7504         45.2504
  22512850.5784    2379763.35549   1844666.18647                  22512849.0294
        48.2504         35.7504
 04  6 29 22 59 50.0000000  0  4G11G16G20G25
  23497194.5224    2300532.98049   1782363.27247                  23497194.1924
        43.2504         29.0004
  21684945.0634   -3860427.50849  -2993623.52747                  21684942.5094
        50.0004         38.0004
  20464933.5214   -3030529.41049  -2348570.45648                  20464930.2984
        50.0004         44.5004
  22515918.9284    2395888.29749   1857231.05847                  22515916.8694
        47.5004         35.7504
 04  6 29 23  0  0.0000000  0  4G11G16G20G25
  23500128.0484    2315949.08649   1794375.79347                  23500127.5764
        43.5004         28.5004
  21679498.4054   -3889048.19149  -3015925.33147                  21679495.9274
        49.5004         38.5004
  20460737.3664   -3052579.42649  -2365752.28048                  20460734.0144
        51.7504         44.5004
  22518983.0704    2411989.78549   1869777.67447                  22518980.7634
        47.5004         35.5004
 04  6 29 23  0 10.0000000  0  4G11G16G20G25
  23503057.3354    2331342.74249   1806370.80347                  23503058.0094
        43.2504         27.0004
  21674055.6174   -3917652.30549  -3038214.24547                  21674052.8164
        50.2504         38.5004
  20456545.6074   -3074608.54349  -2382917.84748                  20456542.0494
        51.7504         44.0004
  22522043.4384    2428069.92249   1882307.62447                  22522041.1914
        48.5004         35.0004
 04  6 29 23  0 20.0000000  0  4G11G16G20G25
  23505983.0924    2346716.38349   1818350.21747                  23505982.9424
        44.0004         27.5004
  21668615.8444   -3946237.13349  -3060488.11547                  21668613.5544
        50.5004         39.0004
  20452358.2574   -3096614.07449  -2400064.99048                  20452354.9784
        50.2504         45.0004
  22525099.6304    2444131.26649   1894822.95647                  22525097.1754
        48.0004         36.0004
 04  6 29 23  0 30.0000000  0  4G11G16G20G25
  23508903.9224    2362064.71149   1830309.93647                  23508903.5994
        44.2504         28.0004
  21663179.1634   -3974807.78549  -3082750.94147                  21663176.3934
        50.2504         38.7504
  20448174.0264   -3118601.20349  -2417197.80948                  20448170.4584
        50.7504         44.7504
  22528151.4704    2460168.51249   1907319.51147                  22528149.3214
        48.5004         35.7504
 04  6 29 23  0 40.0000000  0  4G11G16G20G25
  23511819.6984    2377387.68049   1842249.88547                  23511819.4864
        44.2504         28.0004
  21657745.1334   -4003363.99249  -3105002.51347                  21657742.3964
        49.7504         39.0004
  20443993.4144   -3140569.74649  -2434316.16448                  20443990.0134
        51.5004         45.0004
  22531198.3444    2476181.76649   1919797.37147                  22531196.3204
        48.0004         36.0004
 04  6 29 23  0 50.0000000  0  4G11G16G20G25
  23514732.0814    2392690.19549   1854173.91647                  23514731.6214
        44.5004         27.7504
  21652314.6794   -4031900.84049  -3127239.00047                  21652311.6924
        50.5004         38.5004
  20439817.4614   -3162514.59849  -2451416.03248                  20439814.0064
        52.0004         44.7504
  22534242.2744    2492175.85549   1932260.28747                  22534240.3584
        47.5004         36.0004
 04  6 29 23  1  0.0000000  0  4G11G16G20G25
  23517640.2704    2407974.83249   1866083.96247                  23517639.9324
        44.7504         28.2504
  21646888.4054   -4060415.48449  -3149458.18247                  21646886.0804
        50.7504         39.0004
  20435646.6324   -3184433.06649  -2468495.36748                  20435643.5434
        52.0004         44.5004
  22537282.5874    2508153.48449   1944710.37247                  22537280.0354
        48.0004         36.5004
 04  6 29 23  1 10.0000000  0  4G11G16G20G25
  23520544.1614    2423235.37549   1877975.29047                  23520543.9844
        44.5004         27.2504
  21641465.5254   -4088914.00049  -3171664.79547                  21641462.6664
        50.0004         38.7504
  20431479.5884   -3206331.21149  -2485558.84548                  20431475.9354
        52.2504         44.5004
  22540318.9344    2524108.39549   1957142.77147                  22540316.9644
        48.0004         36.0004
 04  6 29 23  1 20.0000000  0  4G11G16G20G25
  23523443.4314    2438469.25449   1889845.79747                  23523443.4754
        43.2504         28.2504
  21636044.7784   -4117398.73849  -3193860.68747                  21636041.8704
        50.7504         39.0004
  20427315.6774   -3228211.43749  -2502608.37348                  20427312.6554
        52.5004         44.7504
  22543349.7264    2540038.06349   1969555.48447                  22543347.4984
        47.5004         35.2504
 04  6 29 23  1 30.0000000  0  4G11G16G20G25
  23526337.6234    2453680.89849   1901698.98947                  23526337.8404
        41.0004         27.7504
  21630627.9154   -4145865.14549  -3216042.29047                  21630625.3624
        50.7504         38.2504
  20423156.5594   -3250069.21949  -2519640.41548                  20423153.0594
        52.5004         44.7504
  22546377.4334    2555946.91049   1981951.97347                  22546375.1024
        47.2504         36.0004
 04  6 29 23  1 40.0000000  0  4G11G16G20G25
  23529228.3414    2468870.31649   1913534.90247                  23529228.5084
        43.0004         28.5004
  21625214.4284   -4174312.91049  -3238209.35747                  21625211.8534
        50.7504         39.0004
  20419001.2724   -3271904.19149  -2536654.67148                  20418998.3024
        52.7504         45.0004
  22549400.7474    2571835.10249   1994332.39747                  22549398.2544
        47.5004         35.7504
 04  6 29 23  1 50.0000000  0  4G11G16G20G25
  23532115.0644    2484040.18049   1925355.51447                  23532115.2274
        42.5004         28.5004
  21619805.1284   -4202739.11749  -3260359.63247                  21619801.9864
        50.7504         39.2504
  20414851.0794   -3293713.56249  -2553648.97948                  20414847.7074
        52.5004         44.7504
  22552420.8274    2587705.33649   2006698.80447                  22552418.9734
        47.0004         36.0004
 04  6 29 23  2  0.0000000  0  4G11G16G20G25
  23534997.8494    2499187.71949   1937158.75647                  23534997.6894
        41.2504         28.0004
  21614399.1724   -4231146.41049  -3282495.15747                  21614396.5534
        50.7504         39.0004
  20410705.1614   -3315499.97749  -2570625.39948                  20410702.1274
        52.5004         44.5004
  22555436.9414    2603554.87549   2019049.08947                  22555434.9384
        47.0004         35.2504
 04  6 29 23  2 10.0000000  0  4G11G16G20G25
  23537875.2474    2514308.14849   1948940.86247                  23537874.6354
        41.0004         28.2504
  21608996.1854   -4259539.46149  -3304619.60447                  21608993.9994
        50.5004         38.2504
  20406562.8834   -3337268.06249  -2587587.56048                  20406559.5644
        52.5004         44.5004
  22558447.9984    2619378.93449   2031379.50947                  22558446.1694
        46.7504         35.0004
 04  6 29 23  2 20.0000000  0  4G11G16G20G25
  23540747.9764    2529405.00849   1960704.64547                  23540747.7344
        42.2504         26.7504
  21603596.7604   -4287914.58649  -3326730.07147                  21603594.2894
        50.5004         38.5004
  20402425.0674   -3359014.11749  -2604532.53948                  20402421.9944
        52.5004         44.0004
  22561454.9364    2635181.00849   2043692.80047                  22561452.7784
        47.5004         35.0004
 04  6 29 23  2 30.0000000  0  4G11G16G20G25
  23543616.1794    2544477.22349   1972449.21647                  23543616.2124
        43.7504         27.0004
  21598200.4264   -4316272.52349  -3348827.15647                  21598197.5464
        50.5004         38.5004
  20398290.8564   -3380739.03149  -2621461.02748                  20398287.7654
        52.5004         44.7504
  22564458.1724    2650960.12149   2055988.23047                  22564455.3344
        47.2504         36.0004
 04  6 29 23  2 40.0000000  0  4G11G16G20G25
  23546480.4094    2559527.63349   1984176.76247                  23546479.9764
        41.5004         27.0004
  21592807.8814   -4344610.35249  -3370908.56047                  21592805.0834
        50.0004         38.2504
  20394161.2314   -3402439.84449  -2638370.74648                  20394158.1534
        52.0004         44.7504
  22567456.7074    2666719.06349   2068267.90347                  22567454.3484
        46.7504         35.2504
 04  6 29 23  2 50.0000000  0  4G11G16G20G25
  23549339.3104    2574553.97349   1995885.55147                  23549339.2524
        44.0004         27.2504
  21587418.8794   -4372930.00849  -3392975.81147                  21587415.9244
        50.2504         39.0004
  20390036.0324   -3424118.54749  -2655263.25048                  20390032.4474
        52.2504         45.0004
  22570451.1634    2682455.80949   2080530.28447                  22570448.5024
        48.0004         35.5004
 04  6 29 23  3  0.0000000  0  4G11G16G20G25
  23552195.1484    2589560.27349   2007578.74647                  23552195.1754
        44.7504         27.5004
  21582033.6484   -4401227.42249  -3415025.71747                  21582030.6194
        49.5004         38.7504
  20385915.4854   -3445770.97749  -2672135.26148                  20385912.4874
        52.2504         44.7504
  22573442.7004    2698174.30149   2092778.46547                  22573439.9524
        47.2504         34.5004
 04  6 29 23  3 10.0000000  0  4G11G16G20G25
  23555046.7624    2604544.30549   2019254.58547                  23555046.9744
        43.7504         27.0004
  21576652.7944   -4429504.52349  -3437059.80547                  21576650.3554
        50.5004         38.5004
  20381799.8834   -3467399.19149  -2688988.41248                  20381796.8074
        52.5004         44.5004
  22576429.5714    2713872.40649   2105010.74847                  22576427.0324
        47.2504         34.0004
 04  6 29 23  3 20.0000000  0  4G11G16G20G25
  23557893.3194    2619504.15649   2030911.60647                  23557893.1014
        42.0004         26.5004
  21571275.4174   -4457763.04749  -3459079.41347                  21571272.7834
        50.7504         38.5004
  20377688.5114   -3489004.83649  -2705823.96248                  20377685.1654
        52.2504         44.7504
  22579412.9954    2729548.29749   2117225.72547                  22579409.7514
        46.5004         34.5004
